UKL620C ELLX-UKLL

Flight info

Callsign UKL620C
Flight time N/A
Altitude 31000
Route ASMOX Y891 ROPUV L607 UBIDU L984 OKG DCT EROKA DCT ENORU DCT NETIR Z121 SKAVI L984 LUXAR L986 TEPNA/K0859F310
Aircraft A306/H-SDE3FGHIRWY/LB1

Departure

Time N/A
Airport Luxembourg-Findel International Airport (ELLX)

Arrival

Time 2026-05-01 08:17
Airport Lviv International Airport (UKLL)
Time Latitude Longitude Altitude Speed Heading
2026-05-01 07:23 50.00342 17.61945 31392 ft 443 kts 106°
2026-05-01 07:24 49.96690 17.75096 31391 ft 442 kts 106°
2026-05-01 07:24 49.94252 17.83841 31387 ft 441 kts 106°
2026-05-01 07:25 49.91807 17.92569 31392 ft 441 kts 106°
2026-05-01 07:25 49.89356 18.01291 31396 ft 441 kts 107°
2026-05-01 07:26 49.86897 18.10003 31397 ft 441 kts 107°
2026-05-01 07:26 49.84434 18.18702 31399 ft 441 kts 107°
2026-05-01 07:27 49.81964 18.27396 31398 ft 441 kts 107°
2026-05-01 07:27 49.79487 18.36085 31399 ft 441 kts 107°
2026-05-01 07:28 49.77004 18.44759 31389 ft 440 kts 107°
2026-05-01 07:28 49.74518 18.53408 31391 ft 440 kts 107°
2026-05-01 07:29 49.72100 18.62073 31384 ft 436 kts 102°
2026-05-01 07:29 49.70876 18.71063 31393 ft 422 kts 87°
2026-05-01 07:30 49.71420 18.79919 31380 ft 410 kts 71°
2026-05-01 07:30 49.73058 18.88325 31385 ft 407 kts 68°
2026-05-01 07:31 49.74843 18.96594 31378 ft 405 kts 68°
2026-05-01 07:32 49.79232 19.17307 31367 ft 407 kts 68°
2026-05-01 07:33 49.81831 19.29896 31368 ft 407 kts 68°
2026-05-01 07:33 49.84406 19.42427 31371 ft 406 kts 68°
2026-05-01 07:34 49.86940 19.54826 31366 ft 404 kts 68°
2026-05-01 07:35 49.88628 19.63136 31363 ft 404 kts 68°
2026-05-01 07:35 49.90310 19.71450 31361 ft 405 kts 68°
2026-05-01 07:36 49.91993 19.79801 31357 ft 405 kts 68°
2026-05-01 07:36 49.93546 19.88232 31365 ft 409 kts 74°
2026-05-01 07:37 49.94058 20.01581 31367 ft 415 kts 83°
2026-05-01 07:37 49.94010 20.10539 31365 ft 415 kts 84°
2026-05-01 07:38 49.93934 20.19506 31355 ft 415 kts 84°
2026-05-01 07:39 49.93834 20.32947 31348 ft 415 kts 84°
2026-05-01 07:39 49.93737 20.46391 31349 ft 414 kts 84°
2026-05-01 07:40 49.93662 20.55314 31345 ft 413 kts 84°
2026-05-01 07:40 49.93584 20.64219 31348 ft 413 kts 84°
2026-05-01 07:41 49.93499 20.73128 31346 ft 413 kts 84°
2026-05-01 07:42 49.93367 20.86530 31349 ft 414 kts 84°
2026-05-01 07:42 49.93268 20.95462 31351 ft 413 kts 84°
2026-05-01 07:43 49.93165 21.04298 31354 ft 412 kts 84°
2026-05-01 07:43 49.92546 21.17662 31353 ft 423 kts 95°
2026-05-01 07:44 49.90586 21.26428 31358 ft 434 kts 103°
2026-05-01 07:44 49.88186 21.35043 31403 ft 436 kts 104°
2026-05-01 07:45 49.85720 21.43626 31364 ft 435 kts 104°
2026-05-01 07:45 49.83277 21.52187 31359 ft 434 kts 104°
2026-05-01 07:46 49.80851 21.60744 31361 ft 434 kts 104°
2026-05-01 07:47 49.77614 21.72140 31361 ft 434 kts 104°
2026-05-01 07:47 49.75175 21.80684 31359 ft 434 kts 104°
2026-05-01 07:48 49.71511 21.93474 31377 ft 434 kts 104°
2026-05-01 07:48 49.69055 22.01998 31379 ft 434 kts 104°
2026-05-01 07:49 49.65365 22.14765 31394 ft 434 kts 104°
2026-05-01 07:50 49.62902 22.23241 31370 ft 433 kts 104°
2026-05-01 07:50 49.59196 22.35941 31375 ft 433 kts 104°
2026-05-01 07:51 49.56721 22.44393 31376 ft 433 kts 104°
2026-05-01 07:52 49.52996 22.57066 31368 ft 433 kts 104°
2026-05-01 07:52 49.50825 22.65595 31366 ft 417 kts 92°
2026-05-01 07:53 49.50666 22.74252 31364 ft 402 kts 80°
2026-05-01 07:53 49.50794 22.78546 31367 ft 402 kts 80°
2026-05-01 07:53 49.51046 22.87152 31369 ft 403 kts 80°
2026-05-01 07:55 49.51597 23.08676 31368 ft 401 kts 80°
2026-05-01 07:56 49.52097 23.30130 31370 ft 402 kts 80°
2026-05-01 07:57 49.52378 23.42965 31370 ft 402 kts 80°
2026-05-01 07:58 49.52725 23.60077 31343 ft 387 kts 80°
2026-05-01 07:58 49.53668 23.67484 30499 ft 333 kts 54°
2026-05-01 07:59 49.56421 23.73043 28631 ft 323 kts 49°
2026-05-01 07:59 49.59187 23.78425 27197 ft 311 kts 49°
2026-05-01 08:00 49.64185 23.88031 25146 ft 285 kts 44°
2026-05-01 08:01 49.67739 23.95218 23064 ft 296 kts 75°
2026-05-01 08:01 49.67568 23.98476 22276 ft 319 kts 100°
2026-05-01 08:01 49.66359 24.01478 21536 ft 345 kts 126°
2026-05-01 08:02 49.62590 24.06171 20329 ft 346 kts 132°
2026-05-01 08:02 49.60760 24.08550 19712 ft 342 kts 132°
2026-05-01 08:03 49.57112 24.13216 18520 ft 339 kts 133°
2026-05-01 08:03 49.55313 24.15548 17891 ft 336 kts 133°
2026-05-01 08:03 49.51791 24.20152 16730 ft 328 kts 133°
2026-05-01 08:04 49.48362 24.24670 15592 ft 321 kts 133°
2026-05-01 08:04 49.45019 24.29116 14478 ft 315 kts 133°
2026-05-01 08:05 49.41761 24.33481 13415 ft 305 kts 133°
2026-05-01 08:05 49.40183 24.35603 12946 ft 299 kts 133°
2026-05-01 08:05 49.38644 24.37701 12432 ft 294 kts 133°
2026-05-01 08:06 49.35717 24.41955 11375 ft 283 kts 120°
2026-05-01 08:06 49.35117 24.47424 10308 ft 259 kts 66°
2026-05-01 08:07 49.37577 24.50919 9074 ft 251 kts 15°
2026-05-01 08:07 49.41020 24.51661 7982 ft 248 kts
2026-05-01 08:08 49.42733 24.51391 7418 ft 250 kts 345°
2026-05-01 08:08 49.45595 24.48413 6354 ft 250 kts 319°
2026-05-01 08:09 49.48033 24.44833 5698 ft 232 kts 317°
2026-05-01 08:09 49.49180 24.43140 5349 ft 227 kts 317°
2026-05-01 08:09 49.50317 24.41463 5078 ft 226 kts 318°
2026-05-01 08:10 49.52570 24.38149 4537 ft 223 kts 317°
2026-05-01 08:10 49.54801 24.34872 4038 ft 220 kts 317°
2026-05-01 08:11 49.57004 24.31623 3515 ft 218 kts 317°
2026-05-01 08:11 49.59187 24.28406 3026 ft 216 kts 317°
2026-05-01 08:12 49.61355 24.25191 2984 ft 217 kts 316°
2026-05-01 08:12 49.62443 24.23572 2980 ft 218 kts 317°
2026-05-01 08:12 49.64617 24.20325 2980 ft 217 kts 316°
2026-05-01 08:13 49.65701 24.18705 2971 ft 216 kts 316°
2026-05-01 08:13 49.66782 24.17097 2979 ft 216 kts 316°
2026-05-01 08:13 49.68958 24.13864 2985 ft 218 kts 317°
2026-05-01 08:14 49.70038 24.12260 2991 ft 210 kts 316°
2026-05-01 08:14 49.71041 24.10753 2976 ft 192 kts 316°
2026-05-01 08:14 49.71952 24.09376 2959 ft 174 kts 316°
2026-05-01 08:14 49.72784 24.08157 2962 ft 158 kts 316°
2026-05-01 08:15 49.73560 24.06982 2993 ft 155 kts 316°
2026-05-01 08:15 49.75097 24.04670 2564 ft 148 kts 316°
2026-05-01 08:15 49.75807 24.03600 2345 ft 138 kts 316°
2026-05-01 08:16 49.76488 24.02575 2145 ft 135 kts 315°
2026-05-01 08:16 49.77162 24.01552 1936 ft 137 kts 314°
2026-05-01 08:16 49.77827 24.00521 1687 ft 141 kts 315°
2026-05-01 08:16 49.78527 23.99461 1481 ft 139 kts 315°
2026-05-01 08:17 49.79225 23.98437 1302 ft 139 kts 316°
2026-05-01 08:17 49.79922 23.97400 1153 ft 139 kts 315°
2026-05-01 08:17 49.80591 23.96409 1072 ft 108 kts 316°
2026-05-01 08:17 49.80924 23.95911 1070 ft 37 kts 316°
2026-05-01 08:18 49.81114 23.95627 1074 ft 36 kts 315°
2026-05-01 08:18 49.81245 23.95593 1072 ft 0 kts 37°
2026-05-01 08:19 49.81255 23.95615 1073 ft 8 kts 59°
2026-05-01 08:19 49.81271 23.95670 1072 ft 0 kts 59°
2026-05-01 08:19 49.81281 23.95689 1075 ft 4 kts 50°
2026-05-01 08:19 49.81298 23.95714 1072 ft 3 kts 45°
2026-05-01 08:20 49.81329 23.95763 1077 ft 6 kts 45°
2026-05-01 08:20 49.81340 23.95782 1072 ft 1 kts 46°
2026-05-01 08:20 49.81343 23.95786 1072 ft 0 kts 46°
2026-05-01 08:20 49.81346 23.95790 1072 ft 0 kts 46°
2026-05-01 08:21 49.81347 23.95792 1072 ft 0 kts 46°